Weather in Zhelyabovka

Russia / Republic of Crimea     45°23′56″N   34°45′23″E
temp.,
°C
wind,
m/s
gust,
m/s
humid.,
%
clouds,
%
prec.,
mm/h
press.,
hPa
HPBL,
m
28 february, sun
sun2800:00+6nnw5885100 2.9 1018624
03:00+5nnw4877100 2.9 1019586
06:00+4nw5887100 0.1 1019582
09:00+3nw579297 0.2 1020477
12:00+5nnw577497 0.3 1021921
15:00+6nnw676997 0.7 10211005
18:00+5nw477295 0.3 1022741
21:00+3nw368796 0.4 1023231
1 march, mon
mon100:00+3wnw358597 0.1 1024394
03:00+1wnw239398 0.2 1024115
06:00+1w238996 0.0 102578
09:00+1wnw239298 0.0 1026196
12:00+4w227595 0.1 1027575
15:00+4nne227494 0.2 1027589
18:00+4nne346976 0.1 1028310
21:00+1nne118471 0.1 102922
2 march, tue
tue200:00+2wnw228092 0.0 103033
03:00+2nnw247296 0.1 1030109
06:000nw228211 0.0 103022
09:00+2wnw34778 0.0 1030245
12:00+5w565627 0.0 10301188
15:00+7w685228 0.0 10281196
18:00+5w696338 0.0 1025904
21:00+3wsw6137762 0.0 1025567
3 march, wed
wed300:00+4wsw7137947 0.0 1024521
03:00+5w5108473 0.0 1024437
06:00+2wnw349643 0.0 102495
09:00+4wnw468323 0.0 1025299
12:00+9nw576259 0.0 10251255
15:00+9nnw685570 0.1 10251461
18:00+8nnw4758100 0.0 1026628
21:00+5n236385 0.0 102742
4 march, thu
thu400:00+4wnw11652 0.0 102822
03:00+3wsw12691 0.0 102722
06:00+1wsw11750 0.0 102722
09:00+4s22660 0.0 1027126
12:00+9sw34470 0.0 10261258
15:00+11wsw45370 0.0 10251550
18:00+9wsw35510 0.0 1023145
21:00+5sw35756 0.0 1022101